Aérodrome :
LOGIN :

S'inscrire | Disclaimer

   EN    FR    IT 

 










Légende :    VFR   VFR Marginal   IFR   IFR Intensif   IFR Très Intensif
Visi : 
Plafond : 
>= 8 km
>= 3000ft
5 à 8 km
1000 à 3000 ft
1500m à 5 km
500 à 1000 ft
800 à 1500m
200 à 500 ft
< 800m
< 200 ft
Symboles :   Orages  Brouillard  Fortes neiges  Fortes précipitations  Vent > 20 kt
SIGMETs :   Divers  Orages  Givrage  Turbulence  Onde Orograph.  Cendres Volcan.







- Altitude de l'aérodrome : 228 ft
- Code IATA : OPO


LPPR - Porto Fr. Sa Carneiro

DERNIER METAR :
  • 280700Z 30007KT 270V330 9999 FEW020 SCT040 18/16 Q1012

METARs EXPIRÉS :
  • 280630Z 31007KT 9999 FEW020 18/15 Q1012
  • 280600Z 31006KT 280V340 9000 FEW015 SCT032 17/17 Q1011
  • 280530Z 30009KT 280V340 8000 SCT004 BKN025 17/17 Q1011
  • 280500Z 22009KT 190V260 7000 BKN003 OVC009 18/18 Q1010 RESHRA
  • 280430Z 22008KT 180V250 4500 SHRA BR BKN004 18/18 Q1010

TAF TAF LPPR
Valide du 28 à 06h jusqu'au 29 à 06h UTC


280500Z 2806/2906 22012KT 3000 RADZ BR BKN003
BECMG 2806/2808 27015KT SCT018 SCT030
TEMPO 2808/2812 8000 SHRA BKN015
BECMG 2810/2812 32015KT
BECMG 2820/2822 33008KT
Pas de NOTAMs connus pour ce terrain.



MET'MAP, la Météo Aéronautique d'un coup d'oeil ! - Copyright ORBIFLY Décembre 2007 - Disclaimer

ORBIFLY MET'MAP TEAM :

Programmation & Développement : Alexandra Zaïnal
Conception & Développement : Baudouin d'Aumeries
Co-Programmation & Développement : Marc-Olivier Méhu
Soutien technique & logistique : Manuel Goepfert

Contact : metmap@orbifly.com




SOURCES & CREDITS :

   NOAA